Regional Weather Roundup
Issued by NWS

Home | Current Version | Previous Version | Text Only | Print | Product List | Glossary On
Versions: 1 2 3 4 5 6 7 8 9 10 11 12 13 14 15 16 17 18 19 20 21 22 23 24 25 26 27 28 29 30 31 32 33 34 35 36 37 38 39 40 41 42 43 44 45 46 47 48 49 50
000
ASUS44 KJAN 010110
RWRMS

MISSISSIPPI HOURLY WEATHER ROUNDUP
NATIONAL WEATHER SERVICE JACKSON MS
700 PM CST SAT JAN 31 2015

NOTE: "FAIR: INDICATES FEW OR NO CLOUDS BELOW 12,000 FEET WITH NO
SIGNIFICANT WEATHER AND/OR OBSTRUCTIONS TO VISIBILITY.

MSZ001>002-007>008-010>013-018>021-025>028-034>036-010200-
NORTHWEST MISSISSIPPI

CITY           SKY/WX    TMP DP  RH WIND       PRES   REMARKS
CLARKSDALE     FAIR      46  32  57 NE3       30.16F
CLEVELAND      FAIR      48  33  57 CALM      30.16S
GREENWOOD      CLOUDY    54  24  31 S6        30.17R
GREENVILLE     CLOUDY    50  32  50 E5        30.16S
GRENADA        FAIR      50  32  50 E7        30.17F
OLIVE BRANCH   CLOUDY    43  28  56 E5        30.16F
OXFORD         FAIR      46  25  42 SE6       30.19F
TUNICA         CLOUDY    43  34  70 E5        30.16F
$$

MSZ003>006-009-014>017-022>024-029>033-037>039-010200-
NORTHEAST MISSISSIPPI

CITY           SKY/WX    TMP DP  RH WIND       PRES   REMARKS
COLUMBUS AFB   MOCLDY    44  29  56 SE6       30.21F
GOLDN TRIANGLE CLEAR     50  25  37 S9        30.21S
STARKVILLE     FAIR      46  28  49 CALM      30.21F
TUPELO         CLOUDY    50  24  36 E3        30.20F
$$

MSZ040-058-010200-
CENTRAL MISSISSIPPI

CITY           SKY/WX    TMP DP  RH WIND       PRES   REMARKS
JACKSON INTL   MOCLDY    49  30  48 SE5       30.18S
JACKSON HAWKNS MOCLDY    53  27  36 SE7       30.17F
MERIDIAN KEY   CLOUDY    52  25  35 E5        30.21F
MERIDIAN NAS   CLOUDY    49  26  41 E5        30.22F
RAYMOND        FAIR      50  45  81 SE3       30.18R
VICKSBURG      CLOUDY    54  33  45 SE9       30.16S
$$

MSZ059>079-010200-
SOUTH MISSISSIPPI

CITY           SKY/WX    TMP DP  RH WIND       PRES   REMARKS
BROOKHAVEN     FAIR      46  37  71 CALM      30.19S
HATTIESBURG    MOCLDY    49  36  61 S5        30.21R
MCCOMB         CLOUDY    51  37  58 SE5       30.18S
NATCHEZ        CLOUDY    55  37  50 SE9       30.16S
PINE BELT      MOCLDY    48  30  49 CALM      30.21S
$$

MSZ080>082-010200-
COASTAL MISSISSIPPI

CITY           SKY/WX    TMP DP  RH WIND       PRES   REMARKS
BAY ST LOUIS   CLEAR     54  45  71 E5        30.21R
BILOXI         MOCLDY    54  47  76 E5        30.22R
PASCAGOULA     MOCLDY    48  44  86 CALM      30.22S
GULFPORT       MOCLDY    55  46  71 E7        30.21S
$$


USA.gov is the U.S. government's official web portal to all federal, state and local government web resources and services.